Location: Sungai Bunut
(2.6333°N, 113.7333°E)
Time: 16:14:20
(UTC+00:00)

Altair - Pass Details

Date: 08 December 2023
Orbit: 1501 x 1682 km, 47.2° (Epoch: 24 February)

Event Time Altitude Azimuth Distance (km) Brightness Sun altitude
Rises 19:12:32 0° 199° (SSW) 4,927 10.3 -43.0°
Reaches altitude 10° 19:16:15 10° 189° (S) 3,943 9.8 -42.2°
Maximum altitude 19:24:54 32° 130° (SE) 2,601 9.0 -40.3°
Drops below altitude 10° 19:33:23 10° 72° (ENE) 3,893 10.0 -38.4°
Sets 19:36:58 0° 62° (ENE) 4,857 10.5 -37.6°
